THOR ABLESTAR DEB, 516

Orbit data source: Space-Track

THOR ABLESTAR DEB, 516 is space debris in LEO originally from a launch on Thu, 29 Jun 1961 UTC launched from the Air Force Eastern Test Range (AFETR). Debris objects in space refer to the collection of defunct objects orbiting the Earth. Examples of debris include non-operational satellites, rocket bodies, and fragments generated from explosions, collisions, or faulty payload assembly.

Loading next visibility...
Identifier
516, 1961-015FT
Orbit
LEO
Country
Flag of USUS
Related business
Manufacturer
Unknown
Mission
Spacecraft
Bus & Motor
Unknown
Mass
Unknown
Launch date (UTC)
1961-06-29 (64 years ago)
Launch vehicle
Unknown
Launch site
Air Force Eastern Test Range (AFETR)
Object type
Payload
Rocket body
Debris
Shape & HBR
Unknown shape, 0.1 m
Radar Cross Section
Medium (>0.1 m² and <1 m²)

Expand to show TLE details & history
Last TLE update: 8 hours ago

TLE from 8 hours ago
0 THOR ABLESTAR DEB
1 00516U 61015FT  25299.91402100  .00000534  00000-0  46159-3 0  9999
2 00516  65.9967  17.1611 0091021 266.5769  92.4889 13.92645625255901
Epoch: 2025-10-26T21:56Z
TLE epoch observation values (Epoch: 2025-10-26T21:56:11.414Z)
Latitude
-0.00005°
Longitude
12.59013°
Altitude
924.878 km
Speed
7.388 km/s
True Right ascension
01h 08m 38s
True Declination
0° 00' 00"
Sunlit
Object was in full shadow at epoch
Visualization orbit readout
Latitude
Unknown
Longitude
Unknown
Altitude
Unknown
Speed
Unknown
Apparent Right ascension
Unknown
Apparent Declination
Unknown
Sunlit
N/A
Visualization observer readout
Local Sidereal Time
00:55:19
Azimuth
Unknown
Elevation
Unknown
Doppler factor
Unknown
Orbital elements
Apogee altitude
984.268 km
Perigee altitude
851.45 km
Semi-major axis
7,295.996 km
Eccentricity
0.0091
Inclination
65.9967°
RAAN
17.1611°
Arg. of periapsis
266.5769°
True anomaly
93.53037°
Mean anomaly
92.4889°
Eccentric anomaly
93.00969°
Mean motion
3.4827 °/min
Orbital period
103.37 mins
BSTAR
0.00046159
Loading maneuver chart data...
Computing Atmospheric mass density...

Documentation

Showing up to 5 results
|